STARLINK-11253, 60935

Orbit data source: Space-Track

STARLINK-11253, 60935 is a payload satellite owned by SpaceX/Seattle (US) in LEO that was launched on Sat, 31 Aug 2024 UTC via an FALCON 9 launch vehicle from the Air Force Western Test Range (AFWTR). Payloads include a variety of satellites, spacecraft, and rockets equipped with specific instruments for various scientific and technological missions. These include communications satellites like Starlink; space stations such as the ISS; scientific satellites like the Hubble; Earth observation satellites from companies like Planet Labs, Umbra, and HawkEye 360; GPS; miniature CubeSats for education and research; and military/defense satellites.

Loading next visibility...
STARLINK-11253 details
Identifier
60935, 2024-155M
Orbit
LEO
Last TLE update14 hours ago
Origin
Flag of USSpaceX/Seattle (US)
ManufacturerSpaceX/Seattle
MissionOperational spacecraft
Bus & MotorSTARLINK V2M, Unknown motor
Mass730 kg wet, ~700 kg dry
Launch date (UTC)
2024-08-31 (5 months ago)
Launch vehicle
FALCON 9
Launch site
Air Force Western Test Range (AFWTR)
Object type
Payload
Rocket body
Debris
Shape & HBRUnknown
Radar Cross SectionLarge (>1 m²)

Expand to show TLE details & history

TLE from 14 hours ago
0 STARLINK-11253
1 60935U 24155M   25015.03442683 -.00001021  00000-0 -35740-5 0  9993
2 60935  53.1588 245.3768 0001032  99.6237 260.4898 15.69707794 22648
Epoch: 2025-01-15T00:49Z
Definitive object data (Epoch: 2025-01-15T00:49:34.478Z)
Latitude0.00004°
Longitude118.25061°
Altitude360.763 km
Speed7.694 km/s
True Right ascension16h 21m 30s
True Declination0° 00' 00"
Sunlit
Object was in daylight at TLE epoch
Visualization TLE readout
Latitude14.82709°
Longitude126.78303°
Altitude359.839 km
Speed7.696 km/s
Apparent Right ascension19h 52m 36s
Apparent Declination-39° 41' 06"
Sunlit
Object is in daylight
Visualization observer readout
Local Sidereal Time15:20:10
Azimuth133.343° SE
Elevation-10.932°
Doppler factor1
Orbital elements
Apogee altitude360.689 km
Perigee altitude359.299 km
Semi-major axis6,738.131 km
Eccentricity0.0001032
Inclination53.1588°
RAAN245.3768°
Arg. of periapsis99.6237°
True anomaly260.47814°
Mean anomaly260.4898°
Eccentric anomaly260.48397°
Mean motion3.92405 °/min
BSTAR-0.000003574
Orbital period91.74 mins
Loading maneuver chart data...
Loading historical data...
Loading historical data...
Loading historical data...
Loading historical data...
Loading historical data...
Loading historical data...
Loading historical data...

STARLINK-11253 Visibility forecast

Observer location: undefined°, undefined

Span
Click to sort rows by Start time (UTC) header in descending order
Start Az.
Max El. time (UTC)
Max El. Az.
Max El.
End time (UTC)
End Az.
5 mins2025-01-15 17:48:26.873Z221.156° SW2025-01-15 17:51:26.873Z108.165° ESE42.323°2025-01-15 17:53:26.873Z56.445° ENE
4 mins2025-01-16 00:14:26.873Z335.246° NNW2025-01-16 00:16:26.873Z64.577° ENE31.45°2025-01-16 00:18:26.873Z106.622° ESE
|